Location: Oberwangen
(47.4286°N, 8.9679°E)
Time: 05:31:14
(UTC+00:00)

Cosmos 1816 Rocket - Pass Details

Date: 20 June 2021
Orbit: 952 x 998 km, 82.9° (Epoch: 28 July)

Event Time Altitude Azimuth Distance (km) Brightness Sun altitude
Exits shadow 22:47:52 31° 175° (S) 1,601 5.1 -18.6°
Maximum altitude 22:50:56 76° 96° (E) 985 4.4 -18.7°
Drops below altitude 10° 22:57:04 10° 12° (NNE) 2,691 7.9 -18.8°
Sets 22:59:35 0° 11° (N) 3,643 8.9 -18.9°
